Miscellaneous Local Product
Issued by NWS North Platte, NE

Home | Current Version | Previous Version | Text Only | Print | Product List | Glossary On
Versions: 1 2 3 4 5 6 7 8 9 10 11 12 13 14 15 16 17 18 19 20 21 22 23 24 25 26 27 28 29 30 31 32 33 34 35 36 37 38 39 40 41 42 43 44 45 46 47 48 49 50
000
AXUS43 KLBF 141710
MISLBF


WESTERN AND NORTH CENTRAL NEBRASKA HOURLY WEATHER ROUNDUP
NATIONAL WEATHER SERVICE NORTH PLATTE NE
1200 PM CDT SUN SEP 14 2014

***STATIONS NOT REPORTING VARIABLES SUCH AS SKY/WEATHER OR
PRESSURE ARE PROVIDED BY THE NEBRASKA DEPARTMENT OF
ROADS...RAWS...AND APRS NETWORKS...AND ARE NOT UNDER
NATIONAL WEATHER SERVICE QUALITY CONTROL***

...OBSERVATIONS IN AND NEAR THE EASTERN PANHANDLE OF NEBRASKA...

CITY           SKY/WX    TMP DP  RH WIND       PRES   REMARKS
PINE RIDGE     CLOUDY    55  41  59 E12       30.13F
CHADRON        CLOUDY    51  41  68 E12       30.12F
ALLIANCE       CLOUDY    53  48  83 S7        30.09F
SIDNEY         CLOUDY    53  51  93 CALM      30.11S
WHITECLAY        N/A     54  39  58 E6          N/A
RUSHVILLE        N/A     55  37  51 E15         N/A
CRESCENT LAKE    N/A     64  52  65 S6G16       N/A
LISCO            N/A     57  48  72 CALM        N/A
BIG SPRINGS      N/A     54  51  89 E6          N/A
$$

...OBSERVATIONS IN NORTH CENTRAL NEBRASKA...

CITY           SKY/WX    TMP DP  RH WIND       PRES   REMARKS
VALENTINE      SUNNY     59  39  47 E12       30.13F
THEDFORD       SUNNY     62  48  59 SE13      30.14S
AINSWORTH      SUNNY     57  42  57 E15       30.15F
O`NEILL        PTSUNNY   56  45  66 E9        30.18F
ORD            MOSUNNY   60  47  61 E6        30.15F
BROKEN BOW     MOSUNNY   63  47  55 SE10      30.14F
SPRINGVIEW       N/A     57  44  61 NE8         N/A
ROSE             N/A     60  48  65 E9          N/A
NEWPORT          N/A     58  44  60 E12         N/A
COMSTOCK         N/A     66  51  59 S8          N/A
CHAMBERS         N/A     63  48  57 NE5         N/A
EWING            N/A     58  51  77 CALM        N/A
$$

...OBSERVATIONS IN SOUTHWEST NEBRASKA AND FAR NORTHEAST COLORADO...

CITY           SKY/WX    TMP DP  RH WIND       PRES   REMARKS
WRAY           FAIR      63  54  71 E10       30.09F
HOLYOKE        FAIR      59  55  88 E8        30.10F
IMPERIAL       SUNNY     62  51  67 E7        30.11F
OGALLALA       SUNNY     61  51  71 SE8       30.10F
NORTH PLATTE   SUNNY     59  48  67 SE8       30.13F
MCCOOK         SUNNY     62  50  64 E9        30.12F
LEXINGTON      SUNNY     61  52  72 NE5       30.15S
PAXTON           N/A     50  48  93 E3          N/A
SUTHERLAND       N/A     55  44  68 SE7         N/A
BRADY            N/A     59  49  68 CALM        N/A
GOTHENBURG       N/A     56  44  64 E3          N/A
CALLAWAY         N/A     56  51  83 NE3         N/A
$$

...SOME WEATHER OBSERVATIONS FROM AROUND THE REGION...

CITY           SKY/WX    TMP DP  RH WIND       PRES   REMARKS
DENVER         PTSUNNY   78  36  21 W8        30.13F
LARAMIE        MOSUNNY   67  32  27 SW18G26   30.19S
CHEYENNE       SUNNY     75  28  17 W12       30.13F
SCOTTSBLUFF    CLOUDY    50  47  89 E6        30.10F
RAPID CITY     CLOUDY    49  36  61 S10       30.18S
PIERRE         CLOUDY    54  39  57 E5        30.18S
WINNER         FAIR      57  39  51 E12       30.17F
SIOUX FALLS    PTSUNNY   62  43  49 CALM      30.18S
OMAHA          MOSUNNY   65  49  56 S6        30.21F
GRAND ISLAND   SUNNY     66  50  56 SE8       30.17F
KANSAS CITY    MOSUNNY   67  49  52 VRB6      30.23F
WICHITA        PTSUNNY   71  52  50 S16       30.18F
HAYS           SUNNY     66  54  63 SE13G20   30.12F
LIBERAL        SUNNY     75  57  53 S21G28    30.13F
GOODLAND       SUNNY     59  54  83 SE10      30.09F
$$



USA.gov is the U.S. government's official web portal to all federal, state and local government web resources and services.